When you browse on this site, cookies collect data to enhance your experience and personalize the content and advertising you see.
Visit our Privacy Policy to learn more. By continuing to use the site, you agree to this use of cookies and data.
  • In Czech Republic
  • List of Countries
  • For 7 days
  • Water Temperature
  • Satellite Maps
  • Weather Map
  • Weather Widgets
  • user-avatar
    Login

    Hourly Weather Christchurch

    Today, 22 January, Tuesday

    Time Temperature Precipitation Wind Pressure Humidity
    00:00 +6°C° 0 mm 9 mps 756 mmHg 88%
    01:00 +5°C° 1.1 mm 8 mps 755 mmHg 85%
    02:00 +4°C° 1.1 mm 8 mps 754 mmHg 83%
    03:00 +3°C° 1.1 mm 7 mps 753 mmHg 80%
    04:00 +3°C° 0 mm 7 mps 753 mmHg 80%
    05:00 +2°C° 0 mm 6 mps 753 mmHg 80%
    06:00 +1°C° 0 mm 4 mps 753 mmHg 82%
    07:00 +1°C° 0 mm 5 mps 753 mmHg 82%
    08:00 +1°C° 0 mm 5 mps 753 mmHg 82%
    09:00 +1°C° 0 mm 5 mps 753 mmHg 82%
    10:00 +2°C° 0 mm 5 mps 752 mmHg 77%
    11:00 +3°C° 0 mm 5 mps 752 mmHg 73%
    12:00 +5°C° 0 mm 4 mps 752 mmHg 67%
    13:00 +5°C° 0.6 mm 4 mps 751 mmHg 72%
    14:00 +5°C° 0.6 mm 4 mps 750 mmHg 77%
    15:00 +4°C° 0.6 mm 4 mps 750 mmHg 81%
    16:00 +3°C° 0.4 mm 5 mps 749 mmHg 82%
    17:00 +2°C° 0.4 mm 5 mps 749 mmHg 82%
    18:00 +2°C° 0.4 mm 6 mps 749 mmHg 82%
    19:00 +1°C° 0 mm 6 mps 748 mmHg 82%
    20:00 +1°C° 0 mm 6 mps 748 mmHg 82%
    21:00 -1°C° 0 mm 6 mps 748 mmHg 82%
    22:00 -1°C° 0 mm 6 mps 748 mmHg 82%
    23:00 -1°C° 0 mm 6 mps 748 mmHg 82%

    Tomorrow, 23 January, Wednesday

    Time Temperature Precipitation Wind Pressure Humidity
    00:00 -1°C° 0 mm 6 mps 748 mmHg 82%
    01:00 -1°C° 0 mm 6 mps 748 mmHg 82%
    02:00 -1°C° 0 mm 6 mps 748 mmHg 83%
    03:00 -1°C° 0 mm 6 mps 748 mmHg 83%
    04:00 -1°C° 0 mm 7 mps 748 mmHg 82%
    05:00 -2°C° 0 mm 7 mps 749 mmHg 81%
    06:00 -2°C° 0 mm 7 mps 749 mmHg 81%
    07:00 -2°C° 0 mm 7 mps 750 mmHg 81%
    08:00 -2°C° 0 mm 7 mps 750 mmHg 81%
    09:00 -2°C° 0 mm 7 mps 751 mmHg 81%
    10:00 -1°C° 0 mm 7 mps 751 mmHg 76%
    11:00 +2°C° 0 mm 7 mps 752 mmHg 72%
    12:00 +3°C° 0 mm 7 mps 752 mmHg 68%
    13:00 +3°C° 0 mm 6 mps 753 mmHg 67%
    14:00 +3°C° 0 mm 6 mps 753 mmHg 67%
    15:00 +3°C° 0 mm 6 mps 753 mmHg 66%
    16:00 +2°C° 0 mm 5 mps 754 mmHg 71%
    17:00 +1°C° 0 mm 4 mps 754 mmHg 75%
    18:00 0°C° 0 mm 4 mps 754 mmHg 80%
    19:00 +1°C° 0 mm 3 mps 755 mmHg 81%
    20:00 +1°C° 0 mm 3 mps 755 mmHg 83%
    21:00 +1°C° 0 mm 2 mps 755 mmHg 85%
    22:00 +1°C° 0 mm 2 mps 756 mmHg 85%
    23:00 +2°C° 0 mm 2 mps 756 mmHg 85%

    Day after tomorrow, 24 January, Thursday

    Time Temperature Precipitation Wind Pressure Humidity
    00:00 +2°C° 0 mm 2 mps 756 mmHg 85%
    01:00 +2°C° 0 mm 2 mps 757 mmHg 86%
    02:00 +1°C° 0 mm 2 mps 757 mmHg 86%
    03:00 +1°C° 0 mm 2 mps 757 mmHg 87%
    04:00 +2°C° 0 mm 2 mps 757 mmHg 87%
    05:00 +2°C° 0 mm 2 mps 757 mmHg 88%
    06:00 +2°C° 0 mm 2 mps 756 mmHg 88%
    07:00 +2°C° 0.1 mm 3 mps 757 mmHg 87%
    08:00 +3°C° 0.1 mm 4 mps 757 mmHg 86%
    09:00 +3°C° 0.1 mm 5 mps 757 mmHg 85%
    10:00 +5°C° 0.2 mm 5 mps 757 mmHg 83%
    11:00 +6°C° 0.2 mm 5 mps 757 mmHg 81%
    12:00 +7°C° 0.2 mm 6 mps 757 mmHg 79%
    13:00 +7°C° 0 mm 6 mps 757 mmHg 78%
    14:00 +7°C° 0 mm 6 mps 757 mmHg 76%
    15:00 +6°C° 0 mm 5 mps 757 mmHg 74%
    16:00 +5°C° 0 mm 5 mps 758 mmHg 77%
    17:00 +3°C° 0 mm 5 mps 758 mmHg 79%
    18:00 +2°C° 0 mm 5 mps 759 mmHg 82%
    19:00 +2°C° 0 mm 5 mps 759 mmHg 83%
    20:00 +1°C° 0 mm 5 mps 760 mmHg 83%
    21:00 0°C° 0 mm 5 mps 761 mmHg 84%
    22:00 0°C° 0 mm 4 mps 761 mmHg 86%
    23:00 0°C° 0 mm 4 mps 761 mmHg 87%

    25 January, Friday

    Time Temperature Precipitation Wind Pressure Humidity
    00:00 -1°C° 0 mm 4 mps 761 mmHg 89%
    01:00 -1°C° 0 mm 4 mps 762 mmHg 89%
    02:00 -1°C° 0 mm 4 mps 762 mmHg 89%
    03:00 0°C° 0 mm 3 mps 762 mmHg 90%
    04:00 0°C° 0 mm 3 mps 763 mmHg 90%
    05:00 0°C° 0 mm 3 mps 763 mmHg 90%
    06:00 0°C° 0 mm 3 mps 764 mmHg 89%
    07:00 +1°C° 0 mm 2 mps 764 mmHg 87%
    08:00 +2°C° 0 mm 2 mps 765 mmHg 85%
    09:00 +2°C° 0 mm 2 mps 765 mmHg 82%
    10:00 +4°C° 0 mm 1 mps 765 mmHg 78%
    11:00 +5°C° 0 mm 1 mps 766 mmHg 73%
    12:00 +5°C° 0 mm 0 mps 766 mmHg 68%
    13:00 +6°C° 0 mm 1 mps 766 mmHg 69%
    14:00 +7°C° 0 mm 1 mps 766 mmHg 71%
    15:00 +7°C° 0 mm 1 mps 766 mmHg 72%
    16:00 +6°C° 0 mm 2 mps 766 mmHg 74%
    17:00 +6°C° 0 mm 2 mps 766 mmHg 75%
    18:00 +5°C° 0 mm 2 mps 766 mmHg 77%
    19:00 +6°C° 0 mm 2 mps 766 mmHg 79%
    20:00 +5°C° 0 mm 3 mps 766 mmHg 80%
    21:00 +5°C° 0 mm 3 mps 767 mmHg 82%
    22:00 +5°C° 0.1 mm 3 mps 766 mmHg 84%
    23:00 +6°C° 0.1 mm 4 mps 766 mmHg 86%

    26 January, Saturday

    Time Temperature Precipitation Wind Pressure Humidity
    00:00 +6°C° 0.1 mm 5 mps 766 mmHg 87%
    01:00 +6°C° 0.1 mm 5 mps 766 mmHg 89%
    02:00 +7°C° 0.1 mm 5 mps 765 mmHg 91%
    03:00 +7°C° 0.1 mm 6 mps 765 mmHg 92%
    04:00 +7°C° 0.1 mm 6 mps 764 mmHg 92%
    05:00 +7°C° 0.1 mm 5 mps 763 mmHg 91%
    06:00 +7°C° 0.1 mm 5 mps 763 mmHg 91%
    07:00 +7°C° 0.1 mm 5 mps 762 mmHg 87%
    08:00 +7°C° 0.1 mm 6 mps 762 mmHg 84%
    09:00 +7°C° 0.1 mm 6 mps 761 mmHg 81%
    10:00 +8°C° 0.1 mm 7 mps 760 mmHg 81%
    11:00 +7°C° 0.1 mm 9 mps 760 mmHg 82%
    12:00 +7°C° 0.1 mm 10 mps 759 mmHg 82%
    13:00 +8°C° 0.4 mm 10 mps 758 mmHg 80%
    14:00 +8°C° 0.4 mm 10 mps 756 mmHg 78%
    15:00 +8°C° 0.4 mm 10 mps 755 mmHg 75%
    16:00 +7°C° 0 mm 10 mps 755 mmHg 76%
    17:00 +6°C° 0 mm 10 mps 755 mmHg 77%
    18:00 +6°C° 0 mm 10 mps 755 mmHg 78%
    19:00 +5°C° 0 mm 10 mps 756 mmHg 76%
    20:00 +3°C° 0 mm 9 mps 757 mmHg 74%
    21:00 +2°C° 0 mm 9 mps 757 mmHg 72%
    22:00 +2°C° 0 mm 9 mps 757 mmHg 72%
    23:00 +2°C° 0 mm 9 mps 758 mmHg 72%

    27 January, Sunday

    Time Temperature Precipitation Wind Pressure Humidity
    00:00 +1°C° 0 mm 10 mps 758 mmHg 72%
    01:00 +1°C° 0 mm 10 mps 758 mmHg 73%
    02:00 +2°C° 0 mm 9 mps 758 mmHg 74%
    03:00 +2°C° 0 mm 9 mps 758 mmHg 75%
    04:00 +1°C° 0 mm 9 mps 758 mmHg 76%
    05:00 +1°C° 0 mm 8 mps 759 mmHg 77%
    06:00 +2°C° 0 mm 7 mps 759 mmHg 78%
    07:00 +2°C° 0 mm 7 mps 760 mmHg 78%
    08:00 +2°C° 0 mm 7 mps 760 mmHg 78%
    09:00 +2°C° 0 mm 7 mps 760 mmHg 78%
    10:00 +2°C° 0 mm 7 mps 761 mmHg 72%
    11:00 +3°C° 0 mm 7 mps 761 mmHg 66%
    12:00 +4°C° 0 mm 8 mps 761 mmHg 60%
    13:00 +4°C° 0 mm 7 mps 761 mmHg 59%
    14:00 +4°C° 0 mm 7 mps 761 mmHg 59%
    15:00 +4°C° 0 mm 7 mps 761 mmHg 59%
    16:00 +3°C° 0 mm 7 mps 761 mmHg 61%
    17:00 +2°C° 0 mm 6 mps 761 mmHg 64%
    18:00 +1°C° 0 mm 6 mps 762 mmHg 66%
    19:00 -1°C° 0 mm 6 mps 762 mmHg 68%
    20:00 -1°C° 0 mm 6 mps 762 mmHg 70%
    21:00 -2°C° 0 mm 6 mps 763 mmHg 72%
    22:00 -2°C° 0 mm 6 mps 763 mmHg 73%
    23:00 -2°C° 0 mm 6 mps 763 mmHg 74%
    Show more